Weather History for Jackson, WY

Change the Weather History Date:

Thursday, July 26, 2012

  Actual Average Record
Temperature  
Mean Temperature 63 °F -  
Max Temperature 84 °F 79 °F 90 °F (1988)
Min Temperature 42 °F 43 °F 32 °F (1999)
Degree Days  
Heating Degree Days 2    
Growing Degree Days 13 (Base 50)    
Moisture  
Dew Point 39 °F    
Average Humidity 52    
Maximum Humidity 81    
Minimum Humidity 20    
Precipitation  
Precipitation 0.00 in - - ()
Sea Level Pressure  
Sea Level Pressure 30.22 in    
Wind  
Wind Speed 4 mph (North)    
Max Wind Speed 8 mph    
Max Gust Speed -    
Visibility 10 miles    
Events      
Averages and records for this station are not official NWS values.
T = Trace of Precipitation, MM = Missing Value Source: NWS Daily Summary

Daily Weather History Graph

Daily Weather History Graph

Search for Another Location

Airport:

Trip Planner

Search our weather history database for the weather conditions in past years. The results will help you decide how hot, cold, wet, or windy it might be!

Date:

Astronomy

Jul. 26, 2012 Rise Set
Actual Time 6:06 AM MDT 8:51 PM MDT
Civil Twilight 5:33 AM MDT 9:25 PM MDT
Nautical Twilight 4:51 AM MDT 10:06 PM MDT
Astronomical Twilight 4:02 AM MDT 10:55 PM MDT
Moon 2:42 PM MDT (7/26) 12:03 AM MDT (7/26)
Length of Visible Light 15h 51m
Length of Day
14h 45m
First Quarter, 54% of the Moon is Illuminated
Jul 26
First Quarter
Aug 1
Full
Aug 9
Last Quarter
Aug 17
New
Aug 24
First Quarter

Hourly Weather History & Observations

Time (MDT) Temp. Windchill Dew Point Humidity Pressure Visibility Wind Dir Wind Speed Gust Speed Precip Events Conditions
12:15 AM 57.2 °F - 37.4 °F 48% 30.20 in 10.0 mi ENE 3.5 mph - N/A   Clear
12:55 AM 53.6 °F - 37.4 °F 54% 30.21 in 10.0 mi South 3.5 mph - N/A   Clear
1:15 AM 53.6 °F - 37.4 °F 54% 30.21 in 10.0 mi WNW 5.8 mph - N/A   Clear
1:35 AM 55.4 °F - 39.2 °F 54% 30.21 in 10.0 mi North 4.6 mph - N/A   Clear
1:55 AM 51.8 °F - 39.2 °F 62% 30.22 in 10.0 mi North 6.9 mph - N/A   Clear
2:15 AM 50.0 °F - 37.4 °F 62% 30.22 in 10.0 mi NNE 4.6 mph - N/A   Clear
2:35 AM 48.2 °F - 39.2 °F 71% 30.22 in 10.0 mi NNE 4.6 mph - N/A   Clear
2:55 AM 46.4 °F 44.3 °F 37.4 °F 71% 30.23 in 10.0 mi NNW 4.6 mph - N/A   Clear
3:15 AM 46.4 °F 42.4 °F 37.4 °F 71% 30.23 in 10.0 mi North 8.1 mph - N/A   Clear
3:35 AM 48.2 °F - 37.4 °F 66% 30.23 in 10.0 mi NE 3.5 mph - N/A   Clear
4:15 AM 46.4 °F 44.3 °F 37.4 °F 71% 30.24 in 10.0 mi NNW 4.6 mph - N/A   Clear
4:35 AM 46.4 °F - 37.4 °F 71% 30.25 in 10.0 mi Calm Calm - N/A   Clear
4:55 AM 46.4 °F - 35.6 °F 66% 30.25 in 10.0 mi Calm Calm - N/A   Clear
5:15 AM 46.4 °F - 35.6 °F 66% 30.26 in 10.0 mi Calm Calm - N/A   Clear
5:35 AM 44.6 °F 42.2 °F 37.4 °F 76% 30.26 in 10.0 mi North 4.6 mph - N/A   Clear
5:55 AM 44.6 °F 40.7 °F 37.4 °F 76% 30.26 in 10.0 mi North 6.9 mph - N/A   Clear
6:15 AM 42.8 °F - 35.6 °F 76% 30.27 in 10.0 mi Calm Calm - N/A   Clear
6:35 AM 42.8 °F - 37.4 °F 81% 30.27 in 10.0 mi Calm Calm - N/A   Clear
6:53 AM 46.4 °F - 37.4 °F 71% 30.27 in 10.0 mi Calm Calm - N/A   Clear
7:54 AM 51.8 °F - 39.2 °F 62% 30.29 in 10.0 mi Calm Calm - N/A   Clear
9:21 AM 60.8 °F - 39.2 °F 45% 30.30 in 10.0 mi Calm Calm - N/A   Clear
9:56 AM 64.4 °F - 39.2 °F 40% 30.29 in 10.0 mi Calm Calm - N/A   Clear
10:58 AM 69.8 °F - 37.4 °F 31% 30.28 in 10.0 mi Calm Calm - N/A   Clear
11:53 AM 80.6 °F - 39.2 °F 23% 30.26 in 10.0 mi Calm Calm - N/A   Scattered Clouds
1:46 PM 80.6 °F - 37.4 °F 21% 30.23 in 10.0 mi South 4.6 mph - N/A   Scattered Clouds
1:55 PM 80.6 °F - 37.4 °F 21% 30.23 in 10.0 mi South 4.6 mph - N/A   Scattered Clouds
2:51 PM 82.4 °F - 37.4 °F 20% 30.22 in 10.0 mi South 6.9 mph - N/A   Scattered Clouds
3:51 PM 80.6 °F - 37.4 °F 21% 30.21 in 10.0 mi SSW 5.8 mph - N/A   Scattered Clouds
4:53 PM 84.2 °F - 39.2 °F 20% 30.19 in 10.0 mi SSW 8.1 mph - N/A   Scattered Clouds
5:55 PM 82.4 °F - 39.2 °F 21% 30.17 in 10.0 mi SSW 4.6 mph - N/A   Scattered Clouds
6:51 PM 82.4 °F - 39.2 °F 21% 30.17 in 10.0 mi SSE 3.5 mph - N/A   Partly Cloudy
7:53 PM 82.4 °F - 42.8 °F 25% 30.16 in 10.0 mi SW 3.5 mph - N/A   Clear
8:53 PM 73.4 °F - 44.6 °F 36% 30.16 in 10.0 mi Calm Calm - N/A   Clear
9:15 PM 69.8 °F - 42.8 °F 38% 30.16 in 10.0 mi Calm Calm - N/A   Clear
9:35 PM 66.2 °F - 42.8 °F 43% 30.17 in 10.0 mi Calm Calm - N/A   Clear
9:55 PM 64.4 °F - 42.8 °F 45% 30.17 in 10.0 mi Calm Calm - N/A   Clear
10:15 PM 62.6 °F - 46.4 °F 55% 30.18 in 10.0 mi NNE 3.5 mph - N/A   Clear
10:35 PM 62.6 °F - 46.4 °F 55% 30.19 in 10.0 mi North 3.5 mph - N/A   Clear
10:55 PM 55.4 °F - 46.4 °F 72% 30.19 in 10.0 mi NW 5.8 mph - N/A   Clear
11:15 PM 59.0 °F - 46.4 °F 63% 30.19 in 10.0 mi North 5.8 mph - N/A   Clear
11:55 PM 53.6 °F - 44.6 °F 72% 30.19 in 10.0 mi North 6.9 mph - N/A   Clear